Regional Weather Roundup
Issued by NWS Northern Indiana

Home | Current Version | Previous Version | Graphics & Text | Print | Product List | Glossary On
Versions: 1 2 3 4 5 6 7 8 9 10 11 12 13 14 15 16 17 18 19 20 21 22 23 24 25 26 27 28 29 30 31 32 33 34 35 36 37 38 39 40 41 42 43 44 45 46 47 48 49 50
000
ASUS43 KIWX 262200
RWRIWX

KIWX WEATHER ROUNDUP
NATIONAL WEATHER SERVICE NORTHERN INDIANA
500 PM EST MON JAN 26 2015

NOTE: "FAIR" INDICATES FEW OR NO CLOUDS BELOW 12,000 FEET WITH NO
SIGNIFICANT WEATHER AND/OR OBSTRUCTIONS TO VISIBILITY.

* THESE STATIONS ARE NOT UNDER NWS QUALITY CONTROL. THEY ALSO MAY NOT
  REPORT WEATHER SUCH AS PRECIPITATION OR FOG.

INZ001>027-262300-
NORTHERN INDIANA

CITY           SKY/WX    TMP DP  RH WIND       PRES   REMARKS
GARY*          FLURRIES  28  19  69 SE5       29.88F WCI  23
SOUTH BEND     CLOUDY    24  13  62 CALM      29.90F
GOSHEN         CLOUDY    22   9  57 SW3       29.91R
ANGOLA*        CLOUDY    23   7  50 W3        29.90R
FORT WAYNE     MOCLDY    19  11  70 S5        29.92R WCI  12
PERU/GRISSOM   CLOUDY    20  11  67 CALM      29.91R

$$
INZ028>050-262300-
CENTRAL INDIANA

CITY           SKY/WX    TMP DP  RH WIND       PRES   REMARKS
LAFAYETTE      CLOUDY    27  20  75 CALM      29.90S
KOKOMO*        PTCLDY    23  14  68 N3        29.92R
MUNCIE*        CLEAR     22  14  71 NW3       29.91R
INDIANAPOLIS   CLOUDY    25  19  78 CALM      29.89F

$$
MIZ043>046-050>051-056>058-064>065-071>073-077>080-262300-
SOUTHWEST LOWER MICHIGAN

CITY           SKY/WX    TMP DP  RH WIND       PRES   REMARKS
BATTLE CREEK   CLOUDY    26   4  38 CALM      29.90R
BENTON HARBOR  CLOUDY    23  11  60 E6        29.90F WCI  16
COLDWATER*     CLOUDY    24   3  40 CALM      29.90S
HILLSDALE*     CLEAR     24   3  40 CALM      29.88R
HOLLAND        MOCLDY    25   7  46 E8        29.90F WCI  16
GRAND RAPIDS   MOCLDY    23   5  46 E5        29.91S WCI  17
KALAMAZOO      MOCLDY    24   4  42 SE3       29.90S
STURGIS*       CLOUDY    21   1  42 CALM      29.89S
THREE RIVERS*  CLOUDY    23   0  36 CALM      29.91S

$$
OHZ001>008-015>018-024>025-262300-
NORTHWEST OHIO

CITY           SKY/WX    TMP DP  RH WIND       PRES   REMARKS
DEFIANCE       MOCLDY    22   8  55 NW3       29.93R
FINDLAY        CLEAR     17  10  74 W7        29.91R WCI   8
TOLEDO EXPRESS PTCLDY    22  10  60 NW6       29.91R WCI  14
TOLEDO METCALF CLEAR     20  10  65 E7        29.93R WCI  11
LIMA           CLEAR     17   9  70 N5        29.90R WCI  10

$$
AND FOR LAKE MICHIGAN COASTAL AND OPEN LAKE BUOY OBSERVATIONS

STATION/POSITION TEMP    WIND        PRES    VSBY  WAVE
                 AIR SEA DIR/SP/G                  HT/PER
                 (F)     (DEG/KT/KT) (MB)    (MI)  (FT/S)
CALUMET HARBOR    26     170/  5/  7   N/A
MICHIGAN CITY     24      CALM  /  1   N/A
SAINT JOSEPH      24     200/  1/  4 1013.2R

$$
&&


USA.gov is the U.S. government's official web portal to all federal, state and local government web resources and services.